| time (UTC) | temp C | wind direction | speed KPH | gust KPH | rain 1hr cm | rain 24hr cm | rain mn cm | humidity % | barometer mb |
| 20260508165025 | 22 | 203 | 0.0 | 0.0 | 0.00 | 0.00 | 0.00 | 48 | 1015.5 |
| 20260508164023 | 21 | 248 | 0.0 | 0.0 | 0.00 | 0.00 | 0.00 | 47 | 1015.5 |
| 20260508163521 | 20 | 225 | 0.0 | 1.6 | 0.00 | 0.00 | 0.00 | 48 | 1015.5 |
| 20260508162519 | 22 | 225 | 0.0 | 0.0 | 0.00 | 0.00 | 0.00 | 47 | 1015.5 |
| 20260508162018 | 21 | 45 | 0.0 | 0.0 | 0.00 | 0.00 | 0.00 | 47 | 1015.5 |
| 20260508161516 | 21 | 225 | 1.6 | 4.8 | 0.00 | 0.00 | 0.00 | 46 | 1015.5 |
| 20260508160513 | 21 | 180 | 0.0 | 0.0 | 0.00 | 0.00 | 0.00 | 46 | 1015.9 |
| 20260508160011 | 21 | 338 | 0.0 | 0.0 | 0.00 | 0.00 | 0.00 | 48 | 1015.9 |
| 20260508155510 | 21 | 135 | 0.0 | 0.0 | 0.00 | 0.00 | 0.00 | 46 | 1016.2 |
| 20260508155008 | 21 | 203 | 0.0 | 0.0 | 0.00 | 0.00 | 0.00 | 46 | 1016.2 |
| 20260508154507 | 21 | 0 | 0.0 | 0.0 | 0.00 | 0.00 | 0.00 | 48 | 1016.2 |
| 20260508154005 | 20 | 270 | 0.0 | 0.0 | 0.00 | 0.00 | 0.00 | 46 | 1016.2 |
| 20260508153503 | 20 | 270 | 0.0 | 1.6 | 0.00 | 0.00 | 0.00 | 51 | 1016.2 |
| 20260508152501 | 19 | 135 | 0.0 | 1.6 | 0.00 | 0.00 | 0.00 | 49 | 1015.9 |
| 20260508151959 | 19 | 68 | 0.0 | 1.6 | 0.00 | 0.00 | 0.00 | 50 | 1016.2 |
| 20260508151458 | 20 | 0 | 0.0 | 0.0 | 0.00 | 0.00 | 0.00 | 55 | 1016.2 |
| 20260508150455 | 18 | 23 | 1.6 | 3.2 | 0.00 | 0.00 | 0.00 | 51 | 1016.2 |
| 20260508145954 | 18 | 68 | 0.0 | 3.2 | 0.00 | 0.00 | 0.00 | 54 | 1016.2 |
| 20260508145452 | 18 | 135 | 0.0 | 3.2 | 0.00 | 0.00 | 0.00 | 52 | 1016.2 |
| 20260508144950 | 18 | 23 | 4.8 | 8.0 | 0.00 | 0.00 | 0.00 | 55 | 1016.2 |
| 20260508144449 | 18 | 68 | 1.6 | 3.2 | 0.00 | 0.00 | 0.00 | 56 | 1016.2 |
| 20260508143947 | 19 | 23 | 0.0 | 1.6 | 0.00 | 0.00 | 0.00 | 51 | 1016.2 |
| 20260508143446 | 18 | 23 | 8.0 | 11.3 | 0.00 | 0.00 | 0.00 | 50 | 1016.2 |
| 20260508142944 | 18 | 338 | 0.0 | 1.6 | 0.00 | 0.00 | 0.00 | 57 | 1016.2 |
| 20260508142442 | 18 | 45 | 0.0 | 0.0 | 0.00 | 0.00 | 0.00 | 59 | 1016.2 |
| 20260508141940 | 18 | 45 | 0.0 | 0.0 | 0.00 | 0.00 | 0.00 | 54 | 1016.2 |
| 20260508141439 | 18 | 293 | 0.0 | 0.0 | 0.00 | 0.00 | 0.00 | 60 | 1016.2 |
| 20260508140937 | 18 | 23 | 0.0 | 0.0 | 0.00 | 0.00 | 0.00 | 64 | 1016.2 |
| 20260508140435 | 17 | 45 | 0.0 | 0.0 | 0.00 | 0.00 | 0.00 | 61 | 1016.2 |
| 20260508135934 | 18 | 248 | 0.0 | 0.0 | 0.00 | 0.00 | 0.00 | 64 | 1016.2 |
| 20260508134931 | 17 | 338 | 0.0 | 0.0 | 0.00 | 0.00 | 0.00 | 66 | 1016.2 |
| 20260508134429 | 18 | 293 | 0.0 | 0.0 | 0.00 | 0.00 | 0.00 | 66 | 1016.2 |
| 20260508133928 | 17 | 248 | 0.0 | 0.0 | 0.00 | 0.00 | 0.00 | 72 | 1016.2 |
| 20260508133426 | 16 | 23 | 8.0 | 8.0 | 0.00 | 0.00 | 0.00 | 68 | 1016.2 |
| 20260508132924 | 17 | 0 | 0.0 | 0.0 | 0.00 | 0.00 | 0.00 | 69 | 1016.2 |
| 20260508132423 | 16 | 23 | 1.6 | 3.2 | 0.00 | 0.00 | 0.00 | 70 | 1015.9 |
| 20260508131921 | 16 | 338 | 1.6 | 3.2 | 0.00 | 0.00 | 0.00 | 73 | 1016.2 |
| 20260508131419 | 16 | 338 | 8.0 | 9.7 | 0.00 | 0.00 | 0.00 | 74 | 1015.9 |
| 20260508130917 | 16 | 23 | 0.0 | 0.0 | 0.00 | 0.00 | 0.00 | 78 | 1015.9 |
| 20260508130416 | 15 | 338 | 0.0 | 0.0 | 0.00 | 0.00 | 0.00 | 81 | 1016.2 |
| 20260508125413 | 14 | 248 | 0.0 | 1.6 | 0.00 | 0.00 | 0.00 | 84 | 1016.2 |
| 20260508124912 | 14 | 45 | 0.0 | 1.6 | 0.00 | 0.00 | 0.00 | 85 | 1015.9 |
| 20260508124410 | 13 | 68 | 0.0 | 0.0 | 0.00 | 0.00 | 0.00 | 87 | 1015.9 |
| 20260508123908 | 14 | 0 | 0.0 | 1.6 | 0.00 | 0.00 | 0.00 | 88 | 1015.9 |
| 20260508123406 | 13 | 338 | 0.0 | 1.6 | 0.00 | 0.00 | 0.00 | 90 | 1015.5 |
| 20260508122905 | 13 | 45 | 1.6 | 3.2 | 0.00 | 0.00 | 0.00 | 92 | 1015.5 |
| 20260508122403 | 13 | 0 | 0.0 | 0.0 | 0.00 | 0.00 | 0.00 | 94 | 1015.5 |
| 20260508121901 | 13 | 45 | 0.0 | 0.0 | 0.00 | 0.00 | 0.00 | 96 | 1015.5 |
| 20260508121359 | 13 | 315 | 0.0 | 0.0 | 0.00 | 0.00 | 0.00 | 97 | 1015.5 |
| 20260508120858 | 12 | 315 | 0.0 | 0.0 | 0.00 | 0.00 | 0.00 | 97 | 1015.5 |
| 20260508120356 | 11 | 45 | 0.0 | 0.0 | 0.00 | 0.00 | 0.00 | 97 | 1015.5 |
| 20260508115854 | 11 | 45 | 1.6 | 1.6 | 0.00 | 0.00 | 0.00 | 98 | 1015.2 |
| 20260508115352 | 11 | 45 | 0.0 | 0.0 | 0.00 | 0.00 | 0.00 | 98 | 1015.5 |
| 20260508114851 | 11 | 68 | 0.0 | 0.0 | 0.00 | 0.00 | 0.00 | 98 | 1015.2 |
| 20260508114349 | 11 | 0 | 0.0 | 0.0 | 0.00 | 0.00 | 0.00 | 98 | 1015.2 |
| 20260508113847 | 11 | 0 | 0.0 | 0.0 | 0.00 | 0.00 | 0.00 | 99 | 1014.9 |
| 20260508113346 | 11 | 23 | 0.0 | 0.0 | 0.00 | 0.00 | 0.00 | 99 | 1015.2 |
| 20260508112844 | 10 | 270 | 0.0 | 0.0 | 0.00 | 0.00 | 0.00 | 98 | 1014.9 |
| 20260508112342 | 11 | 158 | 0.0 | 0.0 | 0.00 | 0.00 | 0.00 | 99 | 1014.9 |
| 20260508111841 | 10 | 248 | 0.0 | 0.0 | 0.00 | 0.00 | 0.00 | 99 | 1014.5 |
| 20260508111339 | 11 | 315 | 0.0 | 0.0 | 0.00 | 0.00 | 0.00 | 99 | 1014.5 |
| 20260508105836 | 8 | 293 | 0.0 | 0.0 | 0.00 | 0.00 | 0.00 | 99 | 1014.5 |
| 20260508105334 | 8 | 270 | 0.0 | 0.0 | 0.00 | 0.00 | 0.00 | 99 | 1014.5 |
| 20260508103831 | 7 | 293 | 0.0 | 0.0 | 0.00 | 0.00 | 0.00 | 98 | 1014.2 |
| 20260508103329 | 7 | 293 | 0.0 | 0.0 | 0.00 | 0.00 | 0.00 | 98 | 1014.2 |
| 20260508102828 | 7 | 293 | 0.0 | 0.0 | 0.00 | 0.00 | 0.00 | 98 | 1013.8 |
| 20260508102327 | 8 | 293 | 0.0 | 0.0 | 0.00 | 0.00 | 0.00 | 98 | 1013.8 |
| 20260508101324 | 8 | 338 | 0.0 | 0.0 | 0.00 | 0.00 | 0.00 | 98 | 1013.5 |
| 20260508100822 | 8 | 0 | 0.0 | 0.0 | 0.00 | 0.00 | 0.00 | 98 | 1013.5 |
| 20260508100321 | 8 | 338 | 0.0 | 0.0 | 0.00 | 0.00 | 0.00 | 98 | 1013.5 |
| 20260508095819 | 7 | 315 | 0.0 | 0.0 | 0.00 | 0.00 | 0.00 | 98 | 1013.5 |
| 20260508095317 | 8 | 293 | 0.0 | 0.0 | 0.00 | 0.00 | 0.00 | 98 | 1013.5 |
| 20260508094816 | 8 | 315 | 0.0 | 0.0 | 0.00 | 0.00 | 0.00 | 98 | 1013.5 |
| 20260508094314 | 8 | 293 | 0.0 | 0.0 | 0.00 | 0.00 | 0.00 | 98 | 1013.5 |
| 20260508092811 | 8 | 23 | 0.0 | 0.0 | 0.00 | 0.00 | 0.00 | 98 | 1013.2 |
| 20260508092313 | 8 | 315 | 0.0 | 0.0 | 0.00 | 0.00 | 0.00 | 98 | 1013.5 |
| 20260508091307 | 8 | 338 | 0.0 | 0.0 | 0.00 | 0.00 | 0.00 | 98 | 1013.2 |
| 20260508090805 | 8 | 338 | 0.0 | 0.0 | 0.00 | 0.00 | 0.00 | 98 | 1013.2 |
| 20260508090304 | 8 | 338 | 0.0 | 0.0 | 0.00 | 0.00 | 0.00 | 98 | 1013.2 |
| 20260508085802 | 8 | 338 | 0.0 | 0.0 | 0.00 | 0.00 | 0.00 | 98 | 1013.2 |
| 20260508085300 | 8 | 338 | 0.0 | 0.0 | 0.00 | 0.00 | 0.00 | 98 | 1013.2 |
| 20260508084759 | 8 | 338 | 0.0 | 0.0 | 0.00 | 0.00 | 0.00 | 98 | 1013.2 |
| 20260508083757 | 8 | 315 | 0.0 | 0.0 | 0.00 | 0.00 | 0.00 | 98 | 1013.2 |
| 20260508083255 | 8 | 0 | 0.0 | 0.0 | 0.00 | 0.00 | 0.00 | 98 | 1013.2 |
| 20260508082754 | 8 | 338 | 0.0 | 0.0 | 0.00 | 0.00 | 0.00 | 98 | 1012.8 |
| 20260508082252 | 8 | 293 | 0.0 | 0.0 | 0.00 | 0.00 | 0.00 | 98 | 1012.8 |
| 20260508081750 | 8 | 338 | 0.0 | 0.0 | 0.00 | 0.00 | 0.00 | 98 | 1012.8 |
| 20260508081248 | 8 | 338 | 0.0 | 0.0 | 0.00 | 0.00 | 0.00 | 98 | 1012.8 |
| 20260508080746 | 8 | 338 | 0.0 | 0.0 | 0.00 | 0.00 | 0.00 | 98 | 1012.8 |
| 20260508080244 | 8 | 315 | 0.0 | 0.0 | 0.00 | 0.00 | 0.00 | 98 | 1012.8 |
| 20260508075743 | 9 | 338 | 0.0 | 0.0 | 0.00 | 0.00 | 0.00 | 98 | 1012.8 |
| 20260508075241 | 9 | 338 | 0.0 | 0.0 | 0.00 | 0.00 | 0.00 | 98 | 1012.8 |
| 20260508074739 | 9 | 338 | 0.0 | 0.0 | 0.00 | 0.00 | 0.00 | 98 | 1012.8 |
| 20260508074237 | 9 | 293 | 0.0 | 0.0 | 0.00 | 0.00 | 0.00 | 98 | 1012.5 |
| 20260508073736 | 9 | 0 | 0.0 | 0.0 | 0.00 | 0.00 | 0.00 | 98 | 1012.8 |
| 20260508073234 | 10 | 293 | 0.0 | 0.0 | 0.00 | 0.00 | 0.00 | 98 | 1012.8 |
| 20260508072732 | 10 | 0 | 0.0 | 0.0 | 0.00 | 0.00 | 0.00 | 98 | 1012.5 |
| 20260508072231 | 10 | 0 | 0.0 | 0.0 | 0.00 | 0.00 | 0.00 | 98 | 1012.5 |
| 20260508071228 | 10 | 293 | 0.0 | 0.0 | 0.00 | 0.00 | 0.00 | 98 | 1012.5 |
| 20260508070726 | 10 | 0 | 0.0 | 0.0 | 0.00 | 0.00 | 0.00 | 98 | 1012.5 |
| 20260508070225 | 10 | 0 | 0.0 | 0.0 | 0.00 | 0.00 | 0.00 | 98 | 1012.5 |
| 20260508065723 | 10 | 338 | 0.0 | 0.0 | 0.00 | 0.00 | 0.00 | 98 | 1012.5 |
| 20260508065221 | 10 | 0 | 0.0 | 0.0 | 0.00 | 0.00 | 0.00 | 98 | 1012.5 |
| 20260508063718 | 10 | 338 | 0.0 | 0.0 | 0.00 | 0.00 | 0.00 | 98 | 1012.5 |
| 20260508063216 | 10 | 293 | 0.0 | 0.0 | 0.00 | 0.00 | 0.00 | 98 | 1012.5 |
| 20260508062714 | 10 | 0 | 0.0 | 0.0 | 0.00 | 0.00 | 0.00 | 98 | 1012.5 |
| 20260508062213 | 10 | 293 | 0.0 | 0.0 | 0.00 | 0.00 | 0.00 | 98 | 1012.5 |
| 20260508061711 | 10 | 0 | 0.0 | 0.0 | 0.00 | 0.00 | 0.00 | 98 | 1012.5 |
| 20260508061209 | 10 | 23 | 0.0 | 0.0 | 0.00 | 0.00 | 0.00 | 98 | 1012.5 |
| 20260508060708 | 10 | 248 | 0.0 | 0.0 | 0.00 | 0.00 | 0.00 | 98 | 1012.8 |
| 20260508055705 | 10 | 338 | 0.0 | 0.0 | 0.00 | 0.00 | 0.00 | 98 | 1012.5 |
| 20260508055203 | 11 | 338 | 0.0 | 0.0 | 0.00 | 0.00 | 0.00 | 98 | 1012.5 |
| 20260508054701 | 11 | 248 | 0.0 | 0.0 | 0.00 | 0.00 | 0.00 | 98 | 1012.5 |
| 20260508054200 | 11 | 248 | 0.0 | 0.0 | 0.00 | 0.00 | 0.00 | 98 | 1012.8 |
| 20260508053658 | 11 | 293 | 0.0 | 0.0 | 0.00 | 0.00 | 0.00 | 97 | 1012.5 |
| 20260508052656 | 11 | 315 | 0.0 | 0.0 | 0.00 | 0.00 | 0.00 | 97 | 1012.5 |
| 20260508052155 | 11 | 293 | 0.0 | 0.0 | 0.00 | 0.00 | 0.00 | 97 | 1012.1 |
| 20260508051653 | 11 | 45 | 0.0 | 0.0 | 0.00 | 0.00 | 0.00 | 97 | 1012.1 |
| 20260508051151 | 11 | 0 | 0.0 | 0.0 | 0.00 | 0.00 | 0.00 | 97 | 1012.5 |
| 20260508050650 | 11 | 270 | 0.0 | 0.0 | 0.00 | 0.00 | 0.00 | 97 | 1012.5 |
| 20260508050148 | 12 | 248 | 0.0 | 0.0 | 0.00 | 0.00 | 0.00 | 97 | 1012.1 |
| 20260508045647 | 12 | 203 | 0.0 | 0.0 | 0.00 | 0.00 | 0.00 | 97 | 1012.1 |
| 20260508045144 | 12 | 270 | 0.0 | 0.0 | 0.00 | 0.00 | 0.00 | 97 | 1012.1 |
| 20260508044643 | 12 | 45 | 0.0 | 0.0 | 0.00 | 0.00 | 0.00 | 97 | 1012.1 |
| 20260508044141 | 12 | 248 | 0.0 | 0.0 | 0.00 | 0.00 | 0.00 | 97 | 1012.1 |
| 20260508043640 | 12 | 315 | 0.0 | 0.0 | 0.00 | 0.00 | 0.00 | 97 | 1012.1 |
| 20260508043138 | 12 | 248 | 0.0 | 0.0 | 0.00 | 0.00 | 0.00 | 97 | 1011.8 |
| 20260508042636 | 12 | 225 | 0.0 | 0.0 | 0.00 | 0.00 | 0.00 | 97 | 1011.8 |
| 20260508042135 | 12 | 23 | 0.0 | 0.0 | 0.00 | 0.00 | 0.00 | 97 | 1011.8 |
| 20260508041633 | 12 | 338 | 0.0 | 0.0 | 0.00 | 0.00 | 0.00 | 97 | 1011.8 |
| 20260508041131 | 12 | 270 | 0.0 | 0.0 | 0.00 | 0.00 | 0.00 | 97 | 1012.1 |
| 20260508040629 | 12 | 225 | 0.0 | 0.0 | 0.00 | 0.00 | 0.00 | 97 | 1011.8 |
| 20260508040128 | 12 | 270 | 0.0 | 0.0 | 0.00 | 0.00 | 0.00 | 97 | 1012.1 |
| 20260508035626 | 13 | 315 | 0.0 | 0.0 | 0.00 | 2.24 | 2.24 | 97 | 1012.1 |
| 20260508035124 | 13 | 338 | 0.0 | 0.0 | 0.00 | 2.24 | 2.24 | 97 | 1012.1 |
| 20260508034622 | 13 | 248 | 0.0 | 0.0 | 0.00 | 2.24 | 2.24 | 97 | 1011.8 |
| 20260508034121 | 13 | 270 | 0.0 | 0.0 | 0.00 | 2.24 | 2.24 | 97 | 1011.8 |
| 20260508033619 | 13 | 315 | 0.0 | 0.0 | 0.00 | 2.24 | 2.24 | 96 | 1011.8 |
| 20260508033117 | 13 | 23 | 0.0 | 0.0 | 0.00 | 2.24 | 2.24 | 96 | 1011.8 |
| 20260508032616 | 13 | 23 | 0.0 | 0.0 | 0.00 | 2.24 | 2.24 | 96 | 1011.8 |
| 20260508032114 | 13 | 23 | 0.0 | 0.0 | 0.00 | 2.24 | 2.24 | 96 | 1011.8 |
| 20260508031612 | 13 | 338 | 0.0 | 0.0 | 0.00 | 2.24 | 2.24 | 96 | 1011.8 |
| 20260508031110 | 13 | 248 | 0.0 | 0.0 | 0.00 | 2.24 | 2.24 | 96 | 1011.8 |
| 20260508030608 | 13 | 338 | 0.0 | 0.0 | 0.00 | 2.24 | 2.24 | 96 | 1011.8 |
| 20260508030107 | 13 | 45 | 0.0 | 0.0 | 0.00 | 2.24 | 2.24 | 96 | 1011.5 |
| 20260508025605 | 13 | 45 | 0.0 | 0.0 | 0.00 | 2.24 | 2.24 | 96 | 1011.8 |
| 20260508025103 | 14 | 0 | 0.0 | 0.0 | 0.00 | 2.24 | 2.24 | 96 | 1011.5 |
| 20260508024602 | 14 | 68 | 0.0 | 0.0 | 0.00 | 2.24 | 2.24 | 96 | 1011.5 |
| 20260508024100 | 14 | 45 | 0.0 | 0.0 | 0.00 | 2.24 | 2.24 | 96 | 1011.5 |
| 20260508023559 | 14 | 23 | 0.0 | 0.0 | 0.00 | 2.24 | 2.24 | 95 | 1011.8 |
| 20260508023057 | 14 | 0 | 0.0 | 0.0 | 0.00 | 2.24 | 2.24 | 95 | 1011.5 |
| 20260508022555 | 14 | 45 | 0.0 | 0.0 | 0.00 | 2.24 | 2.24 | 95 | 1011.5 |
| 20260508022053 | 14 | 23 | 0.0 | 0.0 | 0.00 | 2.24 | 2.24 | 95 | 1011.5 |
| 20260508021551 | 14 | 0 | 0.0 | 3.2 | 0.00 | 2.24 | 2.24 | 95 | 1011.1 |
| 20260508021049 | 14 | 270 | 0.0 | 0.0 | 0.00 | 2.24 | 2.24 | 95 | 1011.1 |
| 20260508020547 | 15 | 338 | 0.0 | 0.0 | 0.00 | 2.24 | 2.24 | 95 | 1011.1 |
| 20260508020046 | 15 | 338 | 0.0 | 1.6 | 0.00 | 2.24 | 2.24 | 95 | 1011.1 |
| 20260508015544 | 15 | 23 | 0.0 | 0.0 | 0.00 | 2.24 | 2.24 | 95 | 1011.1 |
| 20260508015042 | 15 | 45 | 0.0 | 0.0 | 0.00 | 2.24 | 2.24 | 95 | 1011.1 |
| 20260508014540 | 15 | 23 | 0.0 | 1.6 | 0.00 | 2.24 | 2.24 | 96 | 1011.1 |
| 20260508014038 | 15 | 338 | 0.0 | 0.0 | 0.00 | 2.24 | 2.24 | 95 | 1010.8 |
| 20260508013536 | 15 | 315 | 0.0 | 0.0 | 0.00 | 2.24 | 2.24 | 95 | 1010.4 |
| 20260508013034 | 15 | 338 | 0.0 | 1.6 | 0.00 | 2.24 | 2.24 | 95 | 1010.4 |
| 20260508012533 | 15 | 338 | 0.0 | 1.6 | 0.00 | 2.24 | 2.24 | 95 | 1010.4 |
| 20260508012032 | 15 | 90 | 0.0 | 0.0 | 0.00 | 2.24 | 2.24 | 95 | 1010.1 |
| 20260508011529 | 15 | 338 | 0.0 | 0.0 | 0.00 | 2.24 | 2.24 | 95 | 1010.1 |
| 20260508011028 | 15 | 338 | 0.0 | 0.0 | 0.00 | 2.24 | 2.24 | 95 | 1010.1 |
| 20260508010526 | 15 | 0 | 0.0 | 0.0 | 0.00 | 2.24 | 2.24 | 95 | 1009.8 |
| 20260508010024 | 15 | 45 | 0.0 | 0.0 | 0.00 | 2.24 | 2.24 | 95 | 1009.8 |
| 20260508005522 | 15 | 90 | 0.0 | 0.0 | 0.00 | 2.24 | 2.24 | 95 | 1009.8 |
| 20260508005021 | 15 | 315 | 3.2 | 6.4 | 0.00 | 2.24 | 2.24 | 95 | 1009.8 |
| 20260508004519 | 15 | 90 | 0.0 | 0.0 | 0.00 | 2.24 | 2.24 | 95 | 1009.4 |
| 20260508004017 | 15 | 68 | 3.2 | 4.8 | 0.00 | 2.24 | 2.24 | 95 | 1009.4 |
| 20260508003515 | 15 | 23 | 0.0 | 0.0 | 0.00 | 2.24 | 2.24 | 95 | 1009.4 |
| 20260508003013 | 15 | 23 | 0.0 | 0.0 | 0.00 | 2.24 | 2.24 | 95 | 1009.8 |
| 20260508002509 | 16 | 338 | 0.0 | 0.0 | 0.00 | 2.24 | 2.24 | 95 | 1009.4 |
| 20260508002007 | 16 | 23 | 3.2 | 4.8 | 0.00 | 2.24 | 2.24 | 95 | 1009.1 |
| 20260508001505 | 16 | 23 | 3.2 | 3.2 | 0.00 | 2.24 | 2.24 | 95 | 1009.1 |
| 20260508001003 | 16 | 23 | 0.0 | 0.0 | 0.00 | 2.24 | 2.24 | 94 | 1009.1 |
| 20260508000501 | 16 | 23 | 0.0 | 0.0 | 0.00 | 2.24 | 2.24 | 94 | 1008.8 |
| 20260507235959 | 16 | 270 | 0.0 | 1.6 | 0.03 | 2.24 | 2.24 | 94 | 1008.8 |
| 20260507235457 | 16 | 338 | 3.2 | 4.8 | 0.03 | 2.24 | 2.24 | 94 | 1008.4 |
| 20260507234955 | 16 | 0 | 6.4 | 8.0 | 0.03 | 2.24 | 2.24 | 94 | 1008.4 |
| 20260507234453 | 16 | 23 | 0.0 | 0.0 | 0.03 | 2.24 | 2.24 | 94 | 1008.4 |
| 20260507233951 | 16 | 45 | 3.2 | 4.8 | 0.03 | 2.24 | 2.24 | 94 | 1008.4 |
| 20260507233450 | 16 | 23 | 3.2 | 6.4 | 0.03 | 2.24 | 2.24 | 94 | 1008.1 |
| 20260507232948 | 16 | 0 | 4.8 | 8.0 | 0.03 | 2.24 | 2.24 | 93 | 1007.4 |
| 20260507232446 | 16 | 23 | 4.8 | 8.0 | 0.03 | 2.24 | 2.24 | 93 | 1007.1 |
| 20260507231944 | 17 | 23 | 12.9 | 16.1 | 0.00 | 2.21 | 2.21 | 92 | 1007.4 |
| 20260507231442 | 17 | 45 | 16.1 | 20.9 | 0.00 | 2.21 | 2.21 | 91 | 1007.1 |
| 20260507230940 | 17 | 45 | 8.0 | 11.3 | 0.00 | 2.21 | 2.21 | 89 | 1006.7 |
| 20260507230439 | 18 | 23 | 3.2 | 8.0 | 0.00 | 2.21 | 2.21 | 88 | 1007.1 |
| 20260507225937 | 18 | 23 | 9.7 | 16.1 | 0.00 | 2.21 | 2.21 | 87 | 1006.7 |
| 20260507225435 | 18 | 338 | 14.5 | 16.1 | 0.00 | 2.21 | 2.21 | 86 | 1006.7 |
| 20260507224933 | 19 | 68 | 8.0 | 11.3 | 0.00 | 2.21 | 2.21 | 84 | 1006.7 |
| 20260507224431 | 21 | 45 | 14.5 | 20.9 | 0.00 | 2.21 | 2.21 | 76 | 1007.1 |
| 20260507223930 | 25 | 45 | 0.0 | 0.0 | 0.00 | 2.21 | 2.21 | 72 | 1006.0 |
| 20260507223428 | 25 | 225 | 0.0 | 0.0 | 0.00 | 2.21 | 2.21 | 70 | 1005.7 |
| 20260507222926 | 25 | 203 | 0.0 | 0.0 | 0.00 | 2.21 | 2.21 | 69 | 1005.4 |
| 20260507222425 | 25 | 270 | 0.0 | 0.0 | 0.00 | 2.21 | 2.21 | 67 | 1005.4 |
| 20260507221923 | 27 | 225 | 0.0 | 0.0 | 0.00 | 2.21 | 2.21 | 64 | 1005.4 |
| 20260507221421 | 27 | 158 | 0.0 | 0.0 | 0.00 | 2.21 | 2.21 | 64 | 1005.4 |
| 20260507220919 | 27 | 158 | 0.0 | 0.0 | 0.00 | 2.21 | 2.21 | 63 | 1005.7 |
| 20260507220417 | 27 | 293 | 0.0 | 3.2 | 0.00 | 2.21 | 2.21 | 63 | 1005.4 |
| 20260507215915 | 26 | 68 | 0.0 | 0.0 | 0.00 | 2.21 | 2.21 | 66 | 1005.4 |
| 20260507215413 | 26 | 203 | 0.0 | 1.6 | 0.00 | 2.21 | 2.21 | 64 | 1005.4 |
| 20260507214912 | 25 | 203 | 1.6 | 8.0 | 0.00 | 2.21 | 2.21 | 66 | 1005.4 |
| 20260507214410 | 25 | 203 | 1.6 | 8.0 | 0.00 | 2.21 | 2.21 | 66 | 1005.4 |
| 20260507213908 | 26 | 270 | 1.6 | 4.8 | 0.00 | 2.21 | 2.21 | 64 | 1005.0 |
| 20260507213406 | 27 | 248 | 0.0 | 0.0 | 0.00 | 2.21 | 2.21 | 64 | 1005.0 |
| 20260507212905 | 26 | 225 | 3.2 | 6.4 | 0.00 | 2.21 | 2.21 | 64 | 1005.4 |
| 20260507212403 | 26 | 225 | 3.2 | 6.4 | 0.00 | 2.21 | 2.21 | 64 | 1005.4 |
| 20260507212353 | 26 | 225 | 3.2 | 6.4 | 0.00 | 2.21 | 0.00 | 64 | 1005.4 |
| 20260507212320 | 26 | 135 | 4.8 | 6.4 | 0.00 | 2.21 | 2.21 | 64 | 1005.4 |
| 20260507211851 | 27 | 203 | 1.6 | 6.4 | 0.00 | 2.21 | 0.00 | 64 | 1005.4 |
| 20260507211350 | 26 | 248 | 1.6 | 3.2 | 0.00 | 2.21 | 0.00 | 65 | 1005.0 |
| 20260507210848 | 25 | 225 | 8.0 | 9.7 | 0.00 | 2.21 | 0.00 | 68 | 1005.4 |
| 20260507210713 | 25 | 225 | 1.6 | 3.2 | 0.00 | 2.21 | 0.00 | 68 | 1005.0 |
| 20260507210347 | 26 | 158 | 3.2 | 4.8 | 0.00 | 2.21 | 0.00 | 67 | 1005.0 |
| 20260507210211 | 26 | 225 | 4.8 | 8.0 | 0.00 | 2.21 | 0.00 | 66 | 1005.0 |
| 20260507205845 | 26 | 248 | 4.8 | 11.3 | 0.00 | 2.21 | 0.00 | 68 | 1005.7 |
| 20260507205344 | 26 | 203 | 0.0 | 3.2 | 0.00 | 2.21 | 0.00 | 67 | 1005.4 |
| 20260507204842 | 26 | 203 | 0.0 | 3.2 | 0.00 | 2.21 | 0.00 | 67 | 1005.4 |
| 20260507204340 | 26 | 203 | 0.0 | 0.0 | 0.00 | 2.21 | 0.00 | 66 | 1005.4 |
| 20260507203838 | 26 | 180 | 0.0 | 1.6 | 0.00 | 2.21 | 0.00 | 64 | 1005.4 |
| 20260507203337 | 26 | 225 | 3.2 | 6.4 | 0.00 | 2.21 | 0.00 | 67 | 1005.0 |
| 20260507202835 | 26 | 225 | 3.2 | 6.4 | 0.00 | 2.21 | 0.00 | 67 | 1005.0 |
| 20260507202333 | 26 | 225 | 0.0 | 3.2 | 0.00 | 2.21 | 0.00 | 66 | 1005.0 |
| 20260507201832 | 25 | 225 | 0.0 | 0.0 | 0.00 | 2.21 | 0.00 | 68 | 1005.4 |
| 20260507201330 | 26 | 270 | 0.0 | 0.0 | 0.00 | 2.21 | 0.00 | 66 | 1005.4 |
| 20260507200828 | 28 | 270 | 0.0 | 3.2 | 0.00 | 2.21 | 0.00 | 60 | 1005.4 |
| 20260507200327 | 27 | 248 | 4.8 | 8.0 | 0.00 | 2.21 | 0.00 | 63 | 1005.7 |
| 20260507195825 | 26 | 203 | 0.0 | 3.2 | 0.00 | 2.21 | 0.00 | 63 | 1005.7 |
| 20260507195323 | 26 | 338 | 3.2 | 9.7 | 0.00 | 2.21 | 0.00 | 63 | 1005.7 |
| 20260507194821 | 26 | 135 | 6.4 | 8.0 | 0.00 | 2.21 | 0.00 | 62 | 1005.7 |
| 20260507194320 | 26 | 315 | 0.0 | 1.6 | 0.00 | 2.21 | 0.00 | 66 | 1005.7 |
| 20260507193818 | 26 | 293 | 3.2 | 8.0 | 0.00 | 2.21 | 0.00 | 65 | 1005.7 |
| 20260507193316 | 26 | 225 | 0.0 | 1.6 | 0.00 | 2.21 | 0.00 | 66 | 1005.7 |
| 20260507192815 | 25 | 135 | 4.8 | 8.0 | 0.00 | 2.21 | 0.00 | 66 | 1006.0 |
| 20260507192314 | 26 | 203 | 9.7 | 14.5 | 0.00 | 2.21 | 0.00 | 64 | 1006.4 |
| 20260507191811 | 26 | 135 | 0.0 | 3.2 | 0.00 | 2.21 | 0.00 | 64 | 1006.0 |
| 20260507191310 | 26 | 338 | 0.0 | 1.6 | 0.00 | 2.21 | 0.00 | 68 | 1006.4 |
| 20260507190808 | 25 | 248 | 0.0 | 3.2 | 0.00 | 2.21 | 0.00 | 69 | 1006.4 |
| 20260507190306 | 25 | 158 | 0.0 | 1.6 | 0.00 | 2.21 | 0.00 | 68 | 1006.4 |
| 20260507185805 | 26 | 180 | 3.2 | 8.0 | 0.00 | 2.21 | 0.00 | 66 | 1006.0 |
| 20260507185305 | 26 | 180 | 0.0 | 0.0 | 0.00 | 2.21 | 0.00 | 66 | 1006.4 |
| 20260507184801 | 26 | 180 | 0.0 | 0.0 | 0.00 | 2.21 | 0.00 | 66 | 1006.4 |
| 20260507184300 | 26 | 23 | 0.0 | 3.2 | 0.00 | 2.21 | 0.00 | 67 | 1006.4 |
| 20260507183758 | 26 | 135 | 0.0 | 0.0 | 0.00 | 2.21 | 0.00 | 69 | 1006.4 |
| 20260507183256 | 25 | 270 | 0.0 | 1.6 | 0.00 | 2.21 | 0.00 | 71 | 1006.0 |
| 20260507182755 | 25 | 248 | 6.4 | 8.0 | 0.00 | 2.21 | 0.00 | 68 | 1006.0 |
| 20260507182253 | 26 | 45 | 0.0 | 0.0 | 0.00 | 2.21 | 0.00 | 70 | 1006.4 |
| 20260507181751 | 25 | 68 | 1.6 | 3.2 | 0.00 | 2.21 | 0.00 | 70 | 1006.7 |
| 20260507181249 | 25 | 225 | 1.6 | 3.2 | 0.00 | 2.21 | 0.00 | 69 | 1006.4 |
| 20260507180748 | 25 | 135 | 0.0 | 3.2 | 0.00 | 2.21 | 0.00 | 71 | 1006.0 |
| 20260507180246 | 24 | 113 | 6.4 | 11.3 | 0.00 | 2.21 | 0.00 | 72 | 1006.4 |
| 20260507175744 | 25 | 203 | 0.0 | 0.0 | 0.00 | 2.21 | 0.00 | 75 | 1006.4 |
| 20260507175242 | 25 | 158 | 0.0 | 3.2 | 0.00 | 2.21 | 0.00 | 75 | 1006.4 |
| 20260507174740 | 24 | 225 | 0.0 | 3.2 | 0.00 | 2.21 | 0.00 | 75 | 1006.7 |
| 20260507174238 | 25 | 248 | 1.6 | 3.2 | 0.00 | 2.21 | 0.00 | 75 | 1006.4 |
| 20260507173737 | 25 | 248 | 0.0 | 0.0 | 0.00 | 2.21 | 0.00 | 78 | 1006.7 |
| 20260507173235 | 24 | 180 | 0.0 | 0.0 | 0.00 | 2.21 | 0.00 | 76 | 1007.1 |
| 20260507172733 | 24 | 203 | 0.0 | 0.0 | 0.00 | 2.21 | 0.00 | 81 | 1007.1 |
| 20260507172232 | 24 | 270 | 0.0 | 1.6 | 0.00 | 2.21 | 0.00 | 81 | 1007.4 |
| 20260507171730 | 22 | 225 | 0.0 | 3.2 | 0.00 | 2.21 | 0.00 | 82 | 1007.4 |
| 20260507171228 | 22 | 248 | 6.4 | 8.0 | 0.00 | 2.21 | 0.00 | 81 | 1007.1 |
| 20260507170726 | 22 | 270 | 3.2 | 6.4 | 0.00 | 2.21 | 0.00 | 81 | 1007.1 |
| 20260507170225 | 22 | 158 | 0.0 | 1.6 | 0.00 | 2.21 | 0.00 | 82 | 1006.7 |
| 20260507165723 | 23 | 293 | 0.0 | 0.0 | 0.00 | 2.21 | 0.00 | 84 | 1006.7 |